• în România
  • Lista ţărilor
  • Pe 7 zile
  • Temperatura apei
  • Hartă satelitară
  • Meteo pe hartă
  • Widget-uri
  • user-avatar
    Intrare

    Meteo pe oră la Eremkino

    Astăzi, 22 Septembrie, Sâmbătă

    Timp Temperatura Precipitaţii Vânt Presiune Umiditate
    00:00 +16°C° 0 mm 2 m/s 748 mmHg 92%
    01:00 +16°C° 0 mm 2 m/s 748 mmHg 94%
    02:00 +16°C° 0 mm 2 m/s 748 mmHg 96%
    03:00 +16°C° 0 mm 2 m/s 748 mmHg 95%
    04:00 +16°C° 0 mm 3 m/s 748 mmHg 95%
    05:00 +16°C° 0 mm 3 m/s 747 mmHg 95%
    06:00 +17°C° 0 mm 3 m/s 747 mmHg 89%
    07:00 +18°C° 0 mm 4 m/s 747 mmHg 83%
    08:00 +20°C° 0 mm 5 m/s 746 mmHg 76%
    09:00 +21°C° 0 mm 5 m/s 746 mmHg 69%
    10:00 +22°C° 0 mm 6 m/s 746 mmHg 62%
    11:00 +24°C° 0 mm 6 m/s 745 mmHg 56%
    12:00 +24°C° 0 mm 6 m/s 745 mmHg 54%
    13:00 +24°C° 0 mm 6 m/s 744 mmHg 52%
    14:00 +26°C° 0 mm 6 m/s 744 mmHg 50%
    15:00 +25°C° 0 mm 5 m/s 743 mmHg 55%
    16:00 +22°C° 0 mm 5 m/s 743 mmHg 59%
    17:00 +21°C° 0 mm 4 m/s 742 mmHg 64%
    18:00 +20°C° 0.3 mm 4 m/s 742 mmHg 70%
    19:00 +18°C° 0.3 mm 4 m/s 742 mmHg 76%
    20:00 +17°C° 0.3 mm 4 m/s 742 mmHg 83%
    21:00 +16°C° 0.1 mm 3 m/s 742 mmHg 85%
    22:00 +14°C° 0.1 mm 3 m/s 742 mmHg 87%
    23:00 +12°C° 0.1 mm 3 m/s 742 mmHg 89%

    Mâine, 23 Septembrie, Duminică

    Timp Temperatura Precipitaţii Vânt Presiune Umiditate
    00:00 +12°C° 0.5 mm 3 m/s 742 mmHg 90%
    01:00 +11°C° 0.5 mm 3 m/s 742 mmHg 90%
    02:00 +10°C° 0.5 mm 3 m/s 742 mmHg 90%
    03:00 +10°C° 1.3 mm 3 m/s 742 mmHg 91%
    04:00 +10°C° 1.3 mm 3 m/s 742 mmHg 92%
    05:00 +9°C° 1.3 mm 3 m/s 742 mmHg 93%
    06:00 +10°C° 1 mm 3 m/s 742 mmHg 93%
    07:00 +10°C° 1 mm 3 m/s 742 mmHg 92%
    08:00 +10°C° 1 mm 3 m/s 742 mmHg 92%
    09:00 +11°C° 0.1 mm 3 m/s 742 mmHg 87%
    10:00 +12°C° 0.1 mm 3 m/s 742 mmHg 82%
    11:00 +13°C° 0.1 mm 4 m/s 742 mmHg 77%
    12:00 +13°C° 0.1 mm 4 m/s 742 mmHg 73%
    13:00 +14°C° 0.1 mm 4 m/s 742 mmHg 69%
    14:00 +14°C° 0.1 mm 4 m/s 742 mmHg 64%
    15:00 +13°C° 0.1 mm 4 m/s 742 mmHg 69%
    16:00 +12°C° 0.1 mm 3 m/s 742 mmHg 73%
    17:00 +12°C° 0.1 mm 3 m/s 741 mmHg 78%
    18:00 +11°C° 0.1 mm 3 m/s 742 mmHg 81%
    19:00 +10°C° 0.1 mm 3 m/s 742 mmHg 85%
    20:00 +9°C° 0.1 mm 3 m/s 742 mmHg 88%
    21:00 +9°C° 0 mm 3 m/s 742 mmHg 89%
    22:00 +8°C° 0 mm 3 m/s 742 mmHg 90%
    23:00 +8°C° 0 mm 3 m/s 742 mmHg 91%

    Poimâine, 24 Septembrie, Luni

    Timp Temperatura Precipitaţii Vânt Presiune Umiditate
    00:00 +8°C° 0 mm 3 m/s 742 mmHg 92%
    01:00 +7°C° 0 mm 3 m/s 742 mmHg 93%
    02:00 +7°C° 0 mm 3 m/s 742 mmHg 94%
    03:00 +7°C° 0 mm 3 m/s 742 mmHg 95%
    04:00 +5°C° 0 mm 3 m/s 742 mmHg 95%
    05:00 +5°C° 0 mm 3 m/s 742 mmHg 96%
    06:00 +7°C° 0 mm 3 m/s 742 mmHg 93%
    07:00 +8°C° 0 mm 3 m/s 742 mmHg 89%
    08:00 +9°C° 0 mm 3 m/s 742 mmHg 86%
    09:00 +10°C° 0 mm 3 m/s 741 mmHg 80%
    10:00 +12°C° 0 mm 2 m/s 741 mmHg 75%
    11:00 +13°C° 0 mm 2 m/s 741 mmHg 69%
    12:00 +13°C° 0.3 mm 2 m/s 740 mmHg 73%
    13:00 +12°C° 0.3 mm 3 m/s 740 mmHg 76%
    14:00 +11°C° 0.3 mm 3 m/s 739 mmHg 79%
    15:00 +11°C° 1.5 mm 3 m/s 739 mmHg 84%
    16:00 +10°C° 1.5 mm 3 m/s 738 mmHg 89%
    17:00 +9°C° 1.5 mm 3 m/s 737 mmHg 94%
    18:00 +8°C° 1.9 mm 4 m/s 736 mmHg 94%
    19:00 +8°C° 1.9 mm 4 m/s 735 mmHg 94%
    20:00 +7°C° 1.9 mm 4 m/s 734 mmHg 95%
    21:00 +7°C° 2.3 mm 5 m/s 733 mmHg 94%
    22:00 +7°C° 2.3 mm 5 m/s 732 mmHg 94%
    23:00 +7°C° 2.3 mm 5 m/s 731 mmHg 94%

    25 Septembrie, Marţi

    Timp Temperatura Precipitaţii Vânt Presiune Umiditate
    00:00 +7°C° 2.8 mm 6 m/s 730 mmHg 94%
    01:00 +7°C° 2.8 mm 6 m/s 730 mmHg 94%
    02:00 +5°C° 2.8 mm 7 m/s 729 mmHg 93%
    03:00 +5°C° 1.7 mm 7 m/s 730 mmHg 92%
    04:00 +5°C° 1.7 mm 8 m/s 730 mmHg 91%
    05:00 +5°C° 1.7 mm 8 m/s 730 mmHg 90%
    06:00 +5°C° 1.2 mm 8 m/s 731 mmHg 89%
    07:00 +5°C° 1.2 mm 8 m/s 732 mmHg 89%
    08:00 +5°C° 1.2 mm 9 m/s 732 mmHg 88%
    09:00 +5°C° 1 mm 9 m/s 734 mmHg 87%
    10:00 +5°C° 1 mm 9 m/s 735 mmHg 86%
    11:00 +5°C° 1 mm 9 m/s 736 mmHg 85%
    12:00 +5°C° 0.4 mm 8 m/s 737 mmHg 82%
    13:00 +6°C° 0.4 mm 8 m/s 738 mmHg 80%
    14:00 +6°C° 0.4 mm 8 m/s 739 mmHg 77%
    15:00 +6°C° 0 mm 7 m/s 740 mmHg 76%
    16:00 +5°C° 0 mm 7 m/s 741 mmHg 75%
    17:00 +5°C° 0 mm 6 m/s 742 mmHg 75%
    18:00 +5°C° 0 mm 6 m/s 743 mmHg 75%
    19:00 +4°C° 0 mm 6 m/s 744 mmHg 75%
    20:00 +5°C° 0 mm 5 m/s 745 mmHg 76%
    21:00 +3°C° 0 mm 5 m/s 746 mmHg 75%
    22:00 +2°C° 0 mm 5 m/s 747 mmHg 74%
    23:00 +3°C° 0 mm 4 m/s 747 mmHg 73%

    26 Septembrie, Miercuri

    Timp Temperatura Precipitaţii Vânt Presiune Umiditate
    00:00 +1°C° 0 mm 4 m/s 748 mmHg 74%
    01:00 +1°C° 0 mm 4 m/s 748 mmHg 74%
    02:00 +1°C° 0 mm 4 m/s 749 mmHg 74%
    03:00 +1°C° 0 mm 4 m/s 749 mmHg 78%
    04:00 +1°C° 0 mm 4 m/s 748 mmHg 82%
    05:00 +1°C° 0 mm 4 m/s 748 mmHg 86%
    06:00 +3°C° 0 mm 4 m/s 749 mmHg 84%
    07:00 +3°C° 0 mm 5 m/s 749 mmHg 82%
    08:00 +5°C° 0 mm 5 m/s 749 mmHg 80%
    09:00 +6°C° 0.1 mm 5 m/s 748 mmHg 79%
    10:00 +6°C° 0.1 mm 5 m/s 748 mmHg 78%
    11:00 +7°C° 0.1 mm 5 m/s 748 mmHg 78%
    12:00 +7°C° 0.3 mm 5 m/s 747 mmHg 80%
    13:00 +7°C° 0.3 mm 5 m/s 747 mmHg 82%
    14:00 +7°C° 0.3 mm 5 m/s 746 mmHg 84%
    15:00 +7°C° 0.3 mm 5 m/s 746 mmHg 86%
    16:00 +7°C° 0.3 mm 5 m/s 745 mmHg 87%
    17:00 +7°C° 0.3 mm 5 m/s 745 mmHg 89%
    18:00 +7°C° 0.4 mm 5 m/s 744 mmHg 89%
    19:00 +7°C° 0.4 mm 6 m/s 743 mmHg 90%
    20:00 +7°C° 0.4 mm 6 m/s 743 mmHg 90%
    21:00 +6°C° 0.7 mm 7 m/s 742 mmHg 89%
    22:00 +6°C° 0.7 mm 7 m/s 741 mmHg 89%
    23:00 +6°C° 0.7 mm 8 m/s 740 mmHg 88%

    27 Septembrie, Joi

    Timp Temperatura Precipitaţii Vânt Presiune Umiditate
    00:00 +6°C° 0.4 mm 8 m/s 739 mmHg 88%
    01:00 +6°C° 0.4 mm 8 m/s 739 mmHg 87%
    02:00 +6°C° 0.4 mm 8 m/s 738 mmHg 87%
    03:00 +6°C° 0.1 mm 8 m/s 737 mmHg 87%
    04:00 +6°C° 0.1 mm 8 m/s 737 mmHg 87%
    05:00 +6°C° 0.1 mm 8 m/s 736 mmHg 87%
    06:00 +7°C° 0.3 mm 8 m/s 736 mmHg 87%
    07:00 +8°C° 0.3 mm 7 m/s 735 mmHg 87%
    08:00 +9°C° 0.3 mm 7 m/s 735 mmHg 87%
    09:00 +9°C° 0.9 mm 7 m/s 735 mmHg 87%
    10:00 +9°C° 0.9 mm 6 m/s 735 mmHg 86%
    11:00 +10°C° 0.9 mm 6 m/s 734 mmHg 86%
    12:00 +10°C° 0.7 mm 6 m/s 734 mmHg 83%
    13:00 +10°C° 0.7 mm 6 m/s 734 mmHg 80%
    14:00 +10°C° 0.7 mm 7 m/s 734 mmHg 78%
    15:00 +10°C° 0.2 mm 6 m/s 734 mmHg 79%
    16:00 +9°C° 0.2 mm 5 m/s 734 mmHg 80%
    17:00 +8°C° 0.2 mm 4 m/s 734 mmHg 81%
    18:00 +8°C° 0 mm 4 m/s 734 mmHg 81%
    19:00 +7°C° 0 mm 4 m/s 735 mmHg 81%
    20:00 +6°C° 0 mm 4 m/s 735 mmHg 81%
    21:00 +6°C° 0 mm 4 m/s 735 mmHg 81%
    22:00 +6°C° 0 mm 5 m/s 735 mmHg 81%
    23:00 +5°C° 0 mm 5 m/s 735 mmHg 80%
    Arată mai mult